When you browse on this site, cookies collect data to enhance your experience and personalize the content and advertising you see.
Visit our Privacy Policy to learn more. By continuing to use the site, you agree to this use of cookies and data.
  • In Österreich
  • Länderverzeichnis
  • Für 7 Tage
  • Wassertemperatur
  • Satellitenkarten
  • Wetterkarte
  • News
  • Widgets
  • user-avatar
    Anmelden

    Stündliche Wetter Elbasan

    Heute, 23 April, Dienstag

    Zeit Temperatur Niederschläge Wind Luftdruck Luftfeuchtigkeit
    00:00 +15°C° 0 mm 2 m/S 735 mmHg 85%
    01:00 +14°C° 0 mm 3 m/S 735 mmHg 83%
    02:00 +13°C° 0.1 mm 3 m/S 735 mmHg 82%
    03:00 +13°C° 0.1 mm 3 m/S 734 mmHg 82%
    04:00 +13°C° 0.1 mm 4 m/S 734 mmHg 81%
    05:00 +13°C° 0 mm 4 m/S 734 mmHg 78%
    06:00 +14°C° 0 mm 4 m/S 734 mmHg 75%
    07:00 +15°C° 0 mm 4 m/S 734 mmHg 72%
    08:00 +16°C° 0 mm 5 m/S 734 mmHg 66%
    09:00 +19°C° 0 mm 5 m/S 734 mmHg 60%
    10:00 +20°C° 0 mm 5 m/S 734 mmHg 53%
    11:00 +20°C° 0.1 mm 4 m/S 735 mmHg 55%
    12:00 +20°C° 0.1 mm 3 m/S 735 mmHg 56%
    13:00 +20°C° 0.1 mm 3 m/S 735 mmHg 58%
    14:00 +21°C° 0 mm 4 m/S 735 mmHg 55%
    15:00 +21°C° 0 mm 4 m/S 735 mmHg 51%
    16:00 +22°C° 0 mm 5 m/S 735 mmHg 48%
    17:00 +20°C° 0 mm 4 m/S 735 mmHg 54%
    18:00 +18°C° 0 mm 4 m/S 735 mmHg 60%
    19:00 +16°C° 0 mm 3 m/S 735 mmHg 66%
    20:00 +14°C° 0 mm 3 m/S 736 mmHg 69%
    21:00 +13°C° 0 mm 3 m/S 736 mmHg 72%
    22:00 +13°C° 0 mm 3 m/S 737 mmHg 75%
    23:00 +12°C° 0 mm 3 m/S 737 mmHg 76%

    Morgen, 24 April, Mittwoch

    Zeit Temperatur Niederschläge Wind Luftdruck Luftfeuchtigkeit
    00:00 +13°C° 0 mm 2 m/S 737 mmHg 78%
    01:00 +13°C° 0 mm 2 m/S 737 mmHg 80%
    02:00 +13°C° 0 mm 2 m/S 737 mmHg 80%
    03:00 +12°C° 0 mm 2 m/S 737 mmHg 80%
    04:00 +12°C° 0 mm 2 m/S 737 mmHg 80%
    05:00 +14°C° 0 mm 2 m/S 738 mmHg 76%
    06:00 +14°C° 0 mm 3 m/S 738 mmHg 73%
    07:00 +16°C° 0 mm 3 m/S 738 mmHg 69%
    08:00 +18°C° 0 mm 2 m/S 738 mmHg 61%
    09:00 +20°C° 0 mm 2 m/S 739 mmHg 54%
    10:00 +23°C° 0 mm 2 m/S 739 mmHg 46%
    11:00 +24°C° 0 mm 2 m/S 739 mmHg 45%
    12:00 +25°C° 0 mm 2 m/S 739 mmHg 43%
    13:00 +26°C° 0 mm 2 m/S 738 mmHg 42%
    14:00 +25°C° 0 mm 3 m/S 738 mmHg 46%
    15:00 +24°C° 0 mm 3 m/S 738 mmHg 50%
    16:00 +22°C° 0 mm 3 m/S 738 mmHg 55%
    17:00 +20°C° 0 mm 2 m/S 738 mmHg 63%
    18:00 +18°C° 0 mm 2 m/S 738 mmHg 71%
    19:00 +16°C° 0 mm 1 m/S 738 mmHg 80%
    20:00 +16°C° 0 mm 1 m/S 739 mmHg 79%
    21:00 +16°C° 0 mm 1 m/S 739 mmHg 78%
    22:00 +16°C° 0 mm 1 m/S 740 mmHg 78%
    23:00 +16°C° 0 mm 1 m/S 740 mmHg 78%

    übermorgen, 25 April, Donnerstag

    Zeit Temperatur Niederschläge Wind Luftdruck Luftfeuchtigkeit
    00:00 +15°C° 0 mm 1 m/S 740 mmHg 78%
    01:00 +15°C° 0 mm 1 m/S 739 mmHg 79%
    02:00 +15°C° 0 mm 1 m/S 739 mmHg 79%
    03:00 +15°C° 0 mm 1 m/S 739 mmHg 80%
    04:00 +15°C° 0 mm 1 m/S 739 mmHg 80%
    05:00 +16°C° 0 mm 2 m/S 739 mmHg 76%
    06:00 +17°C° 0 mm 2 m/S 739 mmHg 72%
    07:00 +19°C° 0 mm 2 m/S 739 mmHg 68%
    08:00 +22°C° 0 mm 1 m/S 739 mmHg 59%
    09:00 +24°C° 0 mm 1 m/S 740 mmHg 50%
    10:00 +26°C° 0 mm 1 m/S 740 mmHg 41%
    11:00 +27°C° 0 mm 1 m/S 739 mmHg 39%
    12:00 +27°C° 0 mm 1 m/S 739 mmHg 37%
    13:00 +28°C° 0 mm 2 m/S 739 mmHg 35%
    14:00 +28°C° 0 mm 2 m/S 739 mmHg 38%
    15:00 +27°C° 0 mm 2 m/S 738 mmHg 42%
    16:00 +26°C° 0 mm 2 m/S 738 mmHg 46%
    17:00 +24°C° 0 mm 2 m/S 738 mmHg 54%
    18:00 +22°C° 0 mm 1 m/S 738 mmHg 63%
    19:00 +20°C° 0 mm 1 m/S 738 mmHg 71%
    20:00 +20°C° 0.3 mm 1 m/S 738 mmHg 72%
    21:00 +19°C° 0.3 mm 1 m/S 739 mmHg 72%
    22:00 +19°C° 0.3 mm 1 m/S 739 mmHg 73%
    23:00 +18°C° 0.1 mm 1 m/S 739 mmHg 73%

    26 April, Freitag

    Zeit Temperatur Niederschläge Wind Luftdruck Luftfeuchtigkeit
    00:00 +18°C° 0.1 mm 1 m/S 739 mmHg 73%
    01:00 +18°C° 0.1 mm 1 m/S 738 mmHg 74%
    02:00 +18°C° 0 mm 1 m/S 738 mmHg 74%
    03:00 +16°C° 0 mm 1 m/S 738 mmHg 75%
    04:00 +16°C° 0 mm 1 m/S 738 mmHg 76%
    05:00 +18°C° 0 mm 1 m/S 738 mmHg 73%
    06:00 +20°C° 0 mm 1 m/S 738 mmHg 70%
    07:00 +21°C° 0 mm 1 m/S 738 mmHg 67%
    08:00 +23°C° 0 mm 1 m/S 739 mmHg 60%
    09:00 +25°C° 0 mm 1 m/S 739 mmHg 53%
    10:00 +27°C° 0 mm 1 m/S 739 mmHg 47%
    11:00 +27°C° 0 mm 1 m/S 739 mmHg 46%
    12:00 +27°C° 0 mm 2 m/S 738 mmHg 45%
    13:00 +28°C° 0 mm 3 m/S 738 mmHg 44%
    14:00 +27°C° 0 mm 3 m/S 738 mmHg 46%
    15:00 +26°C° 0 mm 3 m/S 737 mmHg 49%
    16:00 +26°C° 0 mm 2 m/S 737 mmHg 51%
    17:00 +24°C° 0 mm 2 m/S 737 mmHg 58%
    18:00 +22°C° 0 mm 1 m/S 737 mmHg 64%
    19:00 +18°C° 0 mm 0 m/S 737 mmHg 70%
    20:00 +17°C° 0 mm 0 m/S 737 mmHg 71%
    21:00 +17°C° 0 mm 0 m/S 737 mmHg 72%
    22:00 +16°C° 0 mm 0 m/S 738 mmHg 73%
    23:00 +16°C° 0 mm 0 m/S 737 mmHg 73%

    27 April, Samstag

    Zeit Temperatur Niederschläge Wind Luftdruck Luftfeuchtigkeit
    00:00 +16°C° 0 mm 0 m/S 737 mmHg 72%
    01:00 +16°C° 0 mm 0 m/S 737 mmHg 72%
    02:00 +16°C° 0 mm 0 m/S 737 mmHg 72%
    03:00 +16°C° 0 mm 1 m/S 737 mmHg 71%
    04:00 +16°C° 0 mm 1 m/S 737 mmHg 71%
    05:00 +18°C° 0 mm 1 m/S 737 mmHg 66%
    06:00 +20°C° 0 mm 1 m/S 737 mmHg 61%
    07:00 +21°C° 0 mm 1 m/S 737 mmHg 57%
    08:00 +22°C° 0 mm 1 m/S 737 mmHg 52%
    09:00 +24°C° 0 mm 2 m/S 737 mmHg 48%
    10:00 +25°C° 0 mm 2 m/S 737 mmHg 43%
    11:00 +25°C° 0 mm 3 m/S 737 mmHg 45%
    12:00 +25°C° 0 mm 3 m/S 736 mmHg 47%
    13:00 +26°C° 0 mm 4 m/S 736 mmHg 49%
    14:00 +25°C° 0 mm 3 m/S 736 mmHg 53%
    15:00 +24°C° 0 mm 3 m/S 735 mmHg 56%
    16:00 +22°C° 0 mm 3 m/S 735 mmHg 60%
    17:00 +20°C° 0 mm 2 m/S 735 mmHg 69%
    18:00 +18°C° 0 mm 2 m/S 735 mmHg 78%
    19:00 +16°C° 0 mm 1 m/S 735 mmHg 87%
    20:00 +16°C° 0 mm 1 m/S 735 mmHg 89%
    21:00 +15°C° 0 mm 1 m/S 736 mmHg 91%
    22:00 +15°C° 0 mm 1 m/S 736 mmHg 93%
    23:00 +15°C° 0 mm 1 m/S 736 mmHg 92%

    28 April, Sonntag

    Zeit Temperatur Niederschläge Wind Luftdruck Luftfeuchtigkeit
    00:00 +15°C° 0 mm 1 m/S 736 mmHg 90%
    01:00 +15°C° 0 mm 1 m/S 736 mmHg 89%
    02:00 +13°C° 0 mm 0 m/S 736 mmHg 90%
    03:00 +13°C° 0 mm 0 m/S 736 mmHg 92%
    04:00 +12°C° 0 mm 0 m/S 735 mmHg 93%
    05:00 +13°C° 0 mm 0 m/S 736 mmHg 87%
    06:00 +14°C° 0 mm 0 m/S 736 mmHg 81%
    07:00 +15°C° 0 mm 0 m/S 736 mmHg 75%
    08:00 +19°C° 0 mm 1 m/S 736 mmHg 63%
    09:00 +20°C° 0 mm 1 m/S 736 mmHg 52%
    10:00 +20°C° 0 mm 2 m/S 736 mmHg 40%
    11:00 +21°C° 0 mm 2 m/S 735 mmHg 40%
    12:00 +21°C° 0 mm 3 m/S 735 mmHg 39%
    13:00 +22°C° 0 mm 3 m/S 735 mmHg 38%
    14:00 +21°C° 0 mm 3 m/S 734 mmHg 41%
    15:00 +21°C° 0 mm 3 m/S 734 mmHg 45%
    16:00 +20°C° 0 mm 3 m/S 734 mmHg 48%
    17:00 +18°C° 0 mm 2 m/S 734 mmHg 57%
    18:00 +16°C° 0 mm 2 m/S 734 mmHg 65%
    19:00 +14°C° 0 mm 1 m/S 734 mmHg 74%
    20:00 +14°C° 0 mm 1 m/S 734 mmHg 74%
    21:00 +13°C° 0 mm 1 m/S 734 mmHg 74%
    22:00 +13°C° 0 mm 1 m/S 734 mmHg 75%
    23:00 +12°C° 0 mm 1 m/S 734 mmHg 72%
    Mehr zeigen